GFSNW_con_mucape_132.txt.gz
CAPE
0 0 0 0 0 0 0 0 0 0 0 0 0 0 0 0 0 0 4 0 0 0 0 0 0 0 0 0 0 0 0 0 0 0 0 0 0 0 0 0 0 0 0 0
0 0 0 0 0 0 0 0 0 2 0 0 0 0 0 0 0 0 0 3 0 0 0 0 4 0 0 0 0 0 0 0 0 0 0 0 0 0 1 2 0 5 3 14
0 0 0 0 0 0 0 0 0 0 0 0 0 0 0 0 0 0 0 6 2 0 0 0 3 0 0 0 0 3 0 0 0 0 0 0 0 0 0 3 2 4 2 13
0 0 0 0 0 0 0 0 0 0 0 1 0 0 0 0 0 0 0 3 7 2 0 0 0 0 0 0 14 0 0 0 0 0 0 0 0 0 0 0 0 0 0 1
0 0 0 0 0 0 0 0 0 0 0 0 2 0 0 0 0 0 0 0 2 0 0 0 0 0 0 0 0 0 0 0 0 0 0 0 0 0 0 0 0 0 0 2
0 0 0 0 0 0 0 1 0 0 0 0 0 0 0 0 0 0 0 0 14 42 0 0 0 0 0 0 0 0 0 0 0 0 0 0 0 0 0 0 0 0 0 0
0 0 0 0 0 0 0 0 0 0 0 0 0 0 0 0 0 0 8 0 13 0 1 0 0 0 3 0 0 0 0 0 0 0 0 0 0 0 0 0 0 0 0 30
0 0 0 0 0 0 0 0 0 10 0 0 0 0 0 0 0 0 2 29 6 23 14 0 0 0 11 0 0 0 0 0 0 0 0 0 0 0 0 0 0 0 10 153
0 0 0 0 0 0 0 0 1 4 0 0 0 0 0 0 0 0 8 26 24 42 33 8 0 0 0 0 0 0 0 0 0 0 0 0 0 0 0 0 0 4 20 153
28 10 0 3 0 0 0 0 2 0 0 0 0 0 0 0 0 0 0 15 17 34 38 17 11 3 0 0 0 0 0 0 0 0 0 0 0 0 0 0 0 30 28 11
8 27 12 9 0 4 0 0 6 0 13 0 0 0 0 0 0 0 5 11 15 17 52 20 18 8 3 1 0 0 0 0 0 0 0 0 35 44 2 10 70 63 0 0
0 14 19 11 10 0 25 0 3 15 9 0 0 0 0 0 0 0 6 1 8 15 30 31 23 8 5 0 0 0 0 0 2 3 11 117 82 21 3 69 36 0 0 0
0 0 26 17 19 12 23 12 0 0 0 0 0 0 0 0 0 3 5 3 2 2 13 0 0 0 0 0 1 0 31 68 48 28 25 43 100 82 54 69 4 2 0 0
0 0 23 21 20 10 23 11 6 8 0 0 0 0 0 0 0 0 1 10 12 2 0 0 0 8 0 0 1 2 5 14 40 52 143 192 198 167 113 41 1 1 0 11
0 0 20 24 17 13 16 0 0 0 3 4 0 0 0 0 2 0 0 3 22 14 13 15 7 1 5 0 1 8 0 5 3 4 128 108 124 141 131 54 0 0 1 86
0 0 32 23 11 11 0 0 18 8 6 0 0 0 0 0 1 2 4 0 16 32 17 22 0 0 0 0 0 0 13 24 4 85 60 38 68 105 0 0 2 26 122 138
0 0 29 16 6 2 1 4 17 31 43 5 0 30 11 14 16 15 29 0 0 0 3 3 0 0 0 0 0 0 37 44 53 184 120 149 145 66 41 87 183 229 245 234
0 32 6 2 2 15 0 0 0 33 28 10 21 12 25 29 19 12 19 10 0 0 0 2 2 0 0 0 0 23 0 30 30 358 243 147 148 208 216 349 345 312 268 197
6 0 2 0 0 0 0 14 20 19 8 0 28 2 8 21 38 31 18 16 16 25 0 0 0 0 0 0 74 2 1 0 4 306 401 298 242 281 318 320 221 126 22 0
0 0 0 0 1 13 20 22 17 14 2 22 9 0 0 9 38 20 22 18 31 0 0 0 0 0 0 0 33 0 0 1 0 0 30 347 351 351 362 398 306 73 19 3
0 0 0 10 29 17 9 25 11 2 0 0 0 0 0 2 20 33 5 0 16 41 15 0 0 0 0 0 0 16 0 0 1 21 12 469 340 547 473 368 272 158 141 91
13 6 8 3 17 6 30 17 18 4 2 9 30 23 0 24 34 8 4 12 2 0 15 28 0 0 0 0 0 7 4 15 6 22 7 194 206 225 497 441 350 332 293 232
22 10 19 0 16 2 5 0 29 37 32 34 59 28 33 35 29 14 2 7 0 40 3 12 19 23 9 1 0 0 1 5 18 19 5 2 8 60 81 394 427 402 356 321
0 0 0 0 0 0 3 15 6 19 8 1 20 40 33 22 35 13 9 0 10 0 0 0 9 2 15 22 186 19 1 5 1 11 27 5 0 119 94 138 425 451 402 355
0 0 0 0 0 11 33 14 0 18 13 3 14 30 31 41 31 16 22 0 0 0 10 16 24 0 78 417 411 231 19 97 187 110 37 5 2 88 146 138 318 404 385 417
1 0 0 2 8 21 38 32 40 29 18 2 14 27 18 26 29 13 1 6 19 24 38 17 86 213 42 300 396 428 369 121 96 100 53 17 16 12 172 240 456 466 513 510
0 0 0 0 0 1 7 32 15 7 19 30 29 24 21 27 14 14 23 28 33 125 112 169 164 50 2 34 234 394 390 459 458 305 266 256 71 16 132 270 555 568 551 534

GFSNW_con_mucape_138.txt.gz
CAPE
0 0 0 0 0 0 0 0 0 0 0 0 0 0 0 0 0 0 0 0 0 0 0 0 0 0 0 0 0 0 0 0 0 0 0 0 0 0 0 0 0 0 0 0
0 0 0 0 0 0 0 0 0 0 0 0 0 0 0 0 0 0 0 0 0 0 0 0 0 0 0 0 0 0 0 0 0 0 0 0 0 0 0 0 0 0 0 0
0 0 0 0 0 0 0 0 0 0 0 0 0 0 0 0 0 0 0 0 0 0 5 0 0 0 0 0 0 5 1 0 0 0 0 0 0 0 0 0 0 0 0 0
0 0 0 0 0 0 0 0 0 0 0 0 0 0 0 0 0 0 0 0 0 0 37 19 0 0 0 0 0 0 0 0 0 0 0 0 0 0 0 0 0 0 0 0
0 0 0 0 0 0 0 0 0 0 0 0 0 0 0 0 0 0 0 0 0 0 25 11 3 0 0 0 0 0 0 0 0 0 0 0 0 0 0 0 0 0 0 0
0 0 0 0 0 0 0 0 0 0 0 0 0 0 0 0 0 0 0 0 0 0 0 0 0 0 0 2 1 5 1 0 0 0 0 0 0 0 0 0 0 0 0 0
4 0 0 0 0 0 0 0 0 0 0 0 0 0 0 0 0 0 0 0 0 0 0 0 0 7 27 30 14 0 0 0 0 0 0 0 0 0 0 0 0 0 0 0
0 31 24 0 0 0 0 0 0 0 0 0 0 0 0 0 0 0 0 0 0 0 0 0 1 10 12 1 0 0 0 0 0 0 0 0 0 0 0 0 0 0 0 0
0 0 17 28 1 0 0 0 0 3 0 0 0 0 0 0 0 0 0 0 0 0 0 8 1 19 0 0 0 0 0 0 0 0 0 0 0 0 0 0 0 0 0 0
0 0 2 20 37 12 6 0 2 9 0 0 0 0 0 0 0 0 0 0 0 0 21 37 13 4 0 0 0 0 0 0 0 0 0 0 0 0 0 0 0 0 0 0
0 0 0 2 40 34 13 0 2 0 0 0 0 0 0 0 0 0 0 0 0 2 19 38 21 1 7 0 0 1 0 0 0 0 0 0 0 0 0 0 0 0 0 0
0 0 0 0 8 41 32 0 3 5 0 0 0 0 0 0 0 0 0 0 0 6 7 17 23 18 11 0 1 9 0 0 0 0 0 0 0 0 0 0 0 0 0 0
0 0 0 0 0 48 14 0 0 0 0 0 0 0 0 0 0 0 0 0 0 1 0 24 24 25 22 25 1 7 0 0 0 29 21 1 0 0 8 0 0 0 0 0
0 0 0 0 0 48 22 0 25 17 0 0 0 0 0 0 0 0 0 0 1 7 5 12 25 16 17 0 4 16 0 7 6 28 100 68 16 8 19 0 0 0 0 0
0 0 0 0 0 34 0 3 8 23 2 0 0 0 0 0 0 0 0 0 0 14 19 22 39 25 16 4 0 15 28 47 47 19 91 51 41 29 20 6 0 0 0 0
0 0 0 0 0 0 0 1 28 43 5 0 0 0 0 0 0 0 10 3 0 0 0 9 30 14 0 0 0 0 3 34 23 9 74 72 83 78 61 3 0 0 0 0
0 0 0 0 0 0 0 0 7 6 26 37 0 1 39 17 22 37 15 12 3 0 0 0 8 4 2 3 7 0 0 1 12 46 131 116 171 88 16 0 0 1 0 0
0 0 18 0 0 0 0 0 4 5 17 49 0 3 20 27 24 19 21 16 3 2 0 0 3 0 0 0 0 0 2 28 26 163 27 33 57 45 0 8 13 30 39 21
0 0 0 0 0 0 10 5 0 9 11 0 22 0 62 29 32 8 18 23 9 1 0 0 0 0 0 0 1 13 0 34 131 258 77 77 29 14 10 7 23 50 57 70
0 0 0 0 6 4 18 35 19 2 11 0 0 0 4 6 14 3 24 23 12 1 7 0 0 0 0 0 0 0 1 0 117 170 117 117 64 54 56 57 68 67 61 72
0 0 0 3 15 11 14 1 0 0 0 0 11 9 0 0 4 25 19 16 10 17 5 0 0 1 0 0 0 0 1 23 22 34 143 152 85 92 101 106 123 120 79 34
0 2 6 0 1 8 0 10 20 0 3 31 32 25 1 0 2 38 12 20 7 0 6 26 0 0 0 0 1 0 5 22 26 33 76 258 224 115 150 154 195 148 116 3
0 6 0 0 0 0 0 0 2 3 65 61 25 23 0 18 48 36 16 1 16 2 2 0 0 2 0 11 11 0 1 13 23 8 1 12 48 183 177 186 212 254 143 25
0 0 0 0 0 0 0 0 6 0 5 0 7 12 24 43 45 37 32 14 13 29 0 0 9 24 24 3 20 46 10 10 1 7 19 5 72 114 223 227 213 274 231 135
0 0 0 0 0 0 13 11 0 9 0 9 0 18 14 12 22 17 6 28 0 0 19 18 43 42 49 85 76 64 49 57 29 31 5 31 52 142 238 272 328 314 316 292
0 0 0 0 0 0 0 0 0 14 16 2 19 19 0 14 3 17 5 0 0 3 26 11 0 16 16 42 61 148 78 91 90 10 0 1 10 13 61 97 33 200 332 409
0 0 0 0 0 0 0 6 20 11 3 0 1 29 0 6 12 0 3 11 26 16 23 9 16 34 11 31 45 57 102 118 39 30 21 14 14 7 3 4 6 7 96 232

GFSNW_con_mucape_141.txt.gz
CAPE
0 0 0 0 0 0 0 0 0 0 0 0 0 0 0 0 0 0 0 0 0 0 0 0 0 0 0 0 0 0 0 0 0 0 0 0 0 0 0 0 0 0 0 0
0 0 0 0 0 0 0 0 0 0 0 0 0 0 0 0 0 0 0 0 0 0 0 0 0 0 0 0 0 0 0 0 0 0 0 0 0 0 0 0 0 0 0 0
0 0 0 0 0 0 0 0 0 0 0 0 0 0 0 0 0 0 0 0 0 0 0 0 0 0 0 0 0 0 1 0 0 3 0 0 0 0 0 0 0 0 0 0
0 0 0 0 0 0 0 0 0 0 0 0 0 0 0 0 0 0 0 0 0 0 0 0 0 2 4 0 47 0 0 0 0 1 0 0 0 0 0 0 0 0 0 0
0 0 0 0 0 0 0 0 0 0 0 0 0 0 0 0 0 0 0 0 0 0 0 0 3 23 12 3 0 0 0 1 0 0 0 0 0 0 0 0 0 0 0 0
0 0 0 0 0 0 0 0 0 0 0 0 0 0 0 0 0 0 0 0 0 0 0 0 0 0 0 1 2 0 0 0 0 0 0 0 0 0 0 0 0 0 0 0
0 0 0 0 0 0 0 0 0 0 0 0 0 0 0 0 0 0 0 0 0 0 0 0 0 0 0 0 12 0 15 0 1 2 0 0 0 0 0 0 0 0 0 0
0 0 0 43 0 0 0 0 0 0 0 0 0 0 0 0 0 0 0 0 0 0 0 0 0 1 20 0 10 10 29 20 2 0 0 0 0 0 0 0 0 0 0 0
0 0 0 0 39 12 1 3 0 1 0 0 0 0 0 0 0 0 0 0 0 0 1 6 4 71 0 0 6 5 34 28 8 0 0 0 0 0 0 0 0 0 0 0
0 0 0 0 11 32 21 6 2 3 0 0 0 0 0 0 0 0 0 0 0 0 0 37 0 101 0 19 3 6 8 1 0 0 0 0 0 0 0 0 0 0 0 0
0 0 0 0 0 24 43 0 6 0 0 0 0 0 0 0 0 0 0 0 1 9 0 25 38 29 43 5 10 12 4 0 0 0 0 0 0 0 0 0 0 0 0 0
0 0 0 0 0 1 48 0 29 45 0 0 0 0 0 1 5 11 14 0 2 12 8 53 45 131 20 117 23 1 0 23 14 12 13 9 81 88 50 0 62 0 10 0
0 0 0 0 0 0 54 59 0 0 0 0 0 0 0 0 0 0 1 0 0 1 1 25 48 46 17 31 14 6 11 0 13 14 149 10 86 143 50 56 74 10 0 0
0 0 0 0 0 0 50 31 75 28 0 0 0 0 0 0 0 0 0 0 1 0 8 7 31 53 29 48 18 4 51 0 15 150 134 202 160 195 244 97 6 0 0 0
0 0 0 0 0 0 40 40 18 35 3 0 0 0 0 0 0 0 0 0 0 9 5 20 9 15 134 25 0 3 34 83 152 124 702 690 501 269 230 116 23 0 0 0
0 0 0 0 0 0 41 0 34 4 51 0 0 0 0 0 0 0 0 0 0 0 3 13 9 15 19 265 87 65 22 8 3 13 269 394 318 311 220 149 34 1 0 9
0 0 0 0 0 38 2 0 6 14 7 0 0 2 38 7 0 41 28 22 23 8 0 0 6 2 14 16 233 65 17 41 6 99 383 373 351 359 107 34 49 36 0 49
0 0 0 0 0 0 0 0 6 13 16 49 0 1 20 27 25 24 34 12 12 3 0 0 1 2 0 3 21 53 0 26 132 181 171 226 368 227 43 19 191 176 0 19
0 0 0 0 0 0 2 7 0 4 46 40 56 0 51 48 69 31 18 17 52 10 1 0 0 0 0 0 16 28 16 91 295 364 262 226 292 102 92 97 249 295 133 44
0 0 0 0 2 0 15 83 71 2 0 0 0 0 0 1 23 89 56 61 15 2 8 21 0 0 0 9 30 2 3 1 36 323 379 135 198 112 233 303 314 308 233 186
0 0 0 6 6 45 40 6 25 18 0 0 18 9 3 0 0 74 51 110 136 70 47 0 0 0 0 0 0 1 1 1 6 4 254 250 119 135 170 207 224 247 226 190
0 0 0 2 1 18 0 4 40 7 0 21 36 26 6 1 0 69 62 146 58 23 27 40 0 27 2 0 0 0 0 0 6 0 100 100 298 110 254 316 329 345 276 188
0 0 0 7 0 0 0 0 3 24 44 8 12 57 0 0 14 42 41 65 97 41 70 90 92 111 34 0 0 0 0 0 18 32 32 28 246 290 183 382 458 403 323 158
0 0 0 0 0 0 3 35 51 80 64 72 67 81 143 102 80 89 96 67 85 52 49 5 92 188 78 36 20 16 40 2 5 24 31 60 120 202 361 406 544 415 382 161
0 0 0 0 0 0 7 17 41 68 64 31 6 58 85 118 78 34 38 46 40 1 5 17 27 94 148 95 74 132 160 125 122 22 30 40 153 300 424 486 539 496 470 222
0 0 0 0 0 0 10 0 0 0 0 1 53 22 57 0 21 58 48 33 0 17 32 64 41 19 63 80 113 183 186 78 165 115 9 18 89 295 431 542 570 559 520 423
0 0 0 0 0 1 0 0 7 36 10 0 50 48 27 3 60 29 36 71 80 45 234 76 13 25 9 70 57 200 235 186 158 77 25 13 17 34 147 346 512 576 557 573

GFSNW_con_mucape_147.txt.gz
CAPE
0 0 0 0 0 0 0 0 0 0 0 0 0 0 0 0 0 0 0 0 0 0 0 0 0 4 13 1 0 2 0 0 0 2 0 0 2 0 11 61 96 92 74 60
0 0 0 0 0 0 0 0 0 0 0 0 1 0 0 0 0 0 0 0 0 0 0 0 0 2 10 0 0 0 2 0 7 6 40 1 0 2 6 41 68 89 77 130
0 0 0 0 0 0 0 0 0 5 0 0 0 0 3 2 0 0 0 0 0 0 0 0 0 0 3 0 0 66 0 1 0 43 87 45 1 0 3 61 69 99 106 198
0 0 0 0 0 0 0 0 1 0 4 17 1 1 0 5 13 3 4 3 1 4 23 8 1 0 2 1 0 0 0 0 17 0 1 56 92 0 0 28 89 96 114 127
0 0 0 0 0 0 0 0 0 1 0 0 0 0 0 3 10 27 37 39 19 29 44 37 59 43 10 36 65 9 17 23 22 45 69 37 72 32 41 51 69 79 30 39
0 0 0 0 0 0 0 1 0 0 0 0 0 0 0 1 4 3 5 0 7 42 57 26 22 26 32 72 195 127 209 111 136 87 116 155 133 112 81 72 57 51 100 79
0 0 0 0 0 0 8 10 1 0 0 0 0 0 0 1 3 3 5 9 7 0 8 1 0 0 0 1 19 87 121 513 300 185 375 214 96 94 93 83 61 50 33 10
0 0 0 0 0 0 0 3 8 1 0 0 0 0 0 0 0 0 0 0 0 0 0 3 2 0 8 9 0 13 90 163 454 298 299 53 245 90 87 36 23 3 2 0
0 0 0 0 0 0 0 0 4 11 0 5 3 0 0 0 2 5 7 2 0 0 5 12 27 38 95 121 29 3 162 190 327 271 71 401 247 144 71 12 0 0 0 0
0 0 0 0 0 0 0 0 19 0 0 0 0 3 13 16 6 4 21 17 9 0 11 37 62 40 128 208 114 227 293 262 78 149 255 237 263 6 20 10 106 12 5 0
0 0 0 0 0 0 0 3 24 8 0 0 0 0 1 2 4 3 28 0 0 6 95 72 53 92 133 261 288 306 376 410 203 123 332 395 65 120 73 372 34 0 0 0
0 0 0 0 0 0 0 0 30 38 0 0 1 0 0 1 3 6 4 1 10 39 172 302 520 425 357 443 367 290 292 224 232 152 400 1070 14 212 66 150 144 32 12 56
0 0 0 0 0 0 0 0 26 0 0 0 0 1 2 0 0 0 0 1 18 23 48 117 235 283 560 442 429 355 357 285 216 368 198 105 245 352 100 84 93 166 100 173
0 0 0 0 0 0 0 57 63 11 0 0 7 0 2 1 4 3 1 0 13 10 30 32 50 165 354 427 413 387 157 331 249 193 244 342 301 290 405 196 378 330 274 274
0 0 0 0 0 0 0 16 29 45 0 0 0 0 10 38 44 17 10 3 0 10 15 22 77 90 75 22 56 169 257 338 138 182 266 663 753 639 514 750 677 679 634 523
0 0 0 0 0 0 0 0 46 0 88 0 0 9 26 22 44 64 20 23 12 7 27 20 16 18 77 33 36 138 94 431 728 272 175 383 1012 840 809 874 800 733 626 587
0 0 0 0 0 0 9 0 0 0 3 1 0 18 15 20 42 35 31 43 14 16 12 32 51 116 100 56 11 13 47 123 662 451 438 945 1178 887 1065 971 806 526 526 562
0 0 0 0 0 0 0 8 4 6 2 6 0 0 5 25 45 65 46 18 14 64 42 82 172 107 75 24 0 0 0 52 160 898 891 834 996 1074 1020 954 837 554 558 585
0 0 0 0 38 46 67 14 1 12 0 0 89 0 63 5 62 116 47 89 89 135 183 113 93 31 31 0 0 10 63 33 445 849 835 1157 1201 1146 1081 909 652 486 541 740
0 0 0 0 63 4 9 15 79 155 106 118 47 41 33 23 7 54 3 160 206 173 225 165 45 5 15 36 23 21 135 270 118 237 875 977 1047 978 768 584 581 550 757 652
0 0 0 53 0 71 75 34 102 85 53 77 54 42 50 65 93 70 68 0 12 106 225 181 138 74 187 125 32 31 48 86 204 239 240 880 612 633 583 623 689 554 466 410
30 13 23 18 68 71 4 41 107 89 57 96 85 49 28 18 29 115 188 111 106 121 305 107 65 198 267 343 337 259 237 183 106 139 29 167 781 350 548 458 355 313 397 484
53 56 52 42 16 0 0 0 38 82 91 43 64 69 93 155 129 72 170 272 181 330 208 138 231 232 291 401 439 425 363 261 83 51 40 20 95 697 560 477 398 416 450 484
0 0 0 0 0 0 24 124 139 141 126 64 66 96 214 291 209 202 225 165 148 73 94 76 92 111 62 319 395 491 368 139 47 37 74 23 29 477 641 518 559 553 653 484
0 0 0 0 37 32 7 98 63 162 67 37 11 40 192 174 200 243 146 93 73 161 95 26 1 60 47 205 354 564 487 200 111 96 60 34 157 813 622 830 716 776 960 829
26 0 0 14 7 23 40 112 77 41 11 1 0 0 49 108 166 157 90 60 100 48 130 63 49 72 9 271 324 417 667 604 324 122 35 39 64 484 884 826 752 982 1130 1244
25 1 29 19 31 23 18 22 35 12 0 1 44 9 48 160 115 128 278 182 103 74 113 225 90 99 99 58 44 197 441 517 681 667 244 56 128 146 426 287 124 189 537 1748